Lamar, CO

11:11 PM MDT on April 24, 2018 (GMT -0600)
Lamar Municipal

Weather History for KLAA - October, 2011

Change the Weather History Date:

Monday, October 3, 2011

  Actual Average Record
Temperature  
Mean Temperature 69 °F 59 °F  
Max Temperature 93 °F 76 °F 99 °F (1925)
Min Temperature 45 °F 41 °F 26 °F (1943)
Degree Days  
Heating Degree Days 0 7  
Month to date heating degree days 5 20  
Since 1 July heating degree days 57 103  
Cooling Degree Days 4 1  
Month to date cooling degree days 5 3  
Year to date cooling degree days 1516 1115  
Growing Degree Days 20 (Base 50)    
Moisture  
Dew Point 36 °F    
Average Humidity 37    
Maximum Humidity 61    
Minimum Humidity 12    
Precipitation  
Precipitation 0.00 in 0.02 in 1.10 in (1930)
Month to date precipitation 0.00 0.08  
Snow  
Snow 0.00 in - - ()
Month to date snowfall 0.0  
Snow Depth 0.00 in    
Sea Level Pressure  
Sea Level Pressure 29.92 in    
Wind  
Wind Speed 8 mph (SSW)    
Max Wind Speed 21 mph    
Max Gust Speed 26 mph    
Visibility 10 miles    
Events      
T = Trace of Precipitation, MM = Missing Value Source: NWS Daily Summary

Daily Weather History Graph

Daily Weather History Graph

Search for Another Location

Airport or City:

Astronomy

Oct. 03, 2011 Rise Set
Actual Time 6:48 AM MDT 6:30 PM MDT
Civil Twilight 6:21 AM MDT 6:57 PM MDT
Nautical Twilight 5:51 AM MDT 7:27 PM MDT
Astronomical Twilight 5:20 AM MDT 7:58 PM MDT
Moon 1:42 PM MDT (10/3) 11:41 PM MDT (10/3)
Length of Visible Light 12h 35m
Length of Day
11h 42m
Waxing Crescent, 46% of the Moon is Illuminated
Oct 3
Waxing Crescent
Oct 3
First Quarter
Oct 11
Full
Oct 19
Last Quarter
Oct 26
New

Hourly Weather History & Observations

Time (MDT) Temp. Dew Point Humidity Pressure Visibility Wind Dir Wind Speed Gust Speed Precip Events Conditions
12:53 AM 63.0 °F 35.1 °F 35% 29.89 in 10.0 mi SSW 6.9 mph - N/A   Clear
1:53 AM 64.0 °F 36.0 °F 35% 29.91 in 10.0 mi WSW 5.8 mph - N/A   Clear
2:53 AM 57.0 °F 35.1 °F 44% 29.90 in 10.0 mi West 4.6 mph - N/A   Clear
3:53 AM 53.1 °F 35.1 °F 50% 29.92 in 10.0 mi Calm Calm - N/A   Clear
5:53 AM 48.0 °F 35.1 °F 61% 29.97 in 10.0 mi West 3.5 mph - N/A   Clear
6:53 AM 50.0 °F 35.1 °F 57% 30.00 in 10.0 mi Calm Calm - N/A   Clear
7:53 AM 51.1 °F 36.0 °F 56% 30.01 in 10.0 mi Calm Calm - N/A   Clear
10:53 AM 78.1 °F 34.0 °F 20% 29.97 in 10.0 mi SSW 5.8 mph - N/A   Clear
11:53 AM 84.0 °F 34.0 °F 17% 29.95 in 10.0 mi South 8.1 mph - N/A   Clear
12:53 PM 89.1 °F 34.0 °F 14% 29.91 in 10.0 mi SSW 12.7 mph 16.1 mph N/A   Clear
1:53 PM 91.0 °F 33.1 °F 13% 29.87 in 10.0 mi SW 8.1 mph - N/A   Clear
2:53 PM 93.0 °F 33.1 °F 12% 29.86 in 10.0 mi SW 8.1 mph - N/A   Partly Cloudy
3:53 PM 91.0 °F 34.0 °F 13% 29.86 in 10.0 mi SSW 11.5 mph 17.3 mph N/A   Clear
4:53 PM 89.1 °F 35.1 °F 15% 29.86 in 10.0 mi South 16.1 mph 20.7 mph N/A   Partly Cloudy
5:53 PM 84.0 °F 36.0 °F 18% 29.88 in 10.0 mi South 11.5 mph - N/A   Scattered Clouds
7:53 PM 75.0 °F 41.0 °F 29% 29.93 in 10.0 mi SSW 10.4 mph - N/A   Partly Cloudy
8:53 PM 69.1 °F 39.9 °F 35% 29.94 in 10.0 mi SSW 9.2 mph - N/A   Clear
9:53 PM 64.0 °F 39.9 °F 41% 29.94 in 10.0 mi North - - N/A   Partly Cloudy
10:53 PM 66.9 °F 41.0 °F 39% 29.92 in 10.0 mi South 10.4 mph - N/A   Clear
11:53 PM 66.0 °F 39.9 °F 38% 29.91 in 10.0 mi South 13.8 mph - N/A   Clear